Weather History for Bentonville, AR

Change the Weather History Date:

Friday, March 29, 2013

  Actual Average Record
Temperature  
Mean Temperature 60 °F -  
Max Temperature 68 °F 63 °F 83 °F (1967)
Min Temperature 51 °F 41 °F 24 °F (1955)
Degree Days  
Heating Degree Days 6    
Growing Degree Days 10 (Base 50)    
Moisture  
Dew Point 50 °F    
Average Humidity 74    
Maximum Humidity 88    
Minimum Humidity 56    
Precipitation  
Precipitation 0.38 in - - ()
Sea Level Pressure  
Sea Level Pressure 30.13 in    
Wind  
Wind Speed 5 mph (SSE)    
Max Wind Speed 10 mph    
Max Gust Speed -    
Visibility 10 miles    
Events Thunderstorm    
Averages and records for this station are not official NWS values.
T = Trace of Precipitation, MM = Missing Value Source: NWS Daily Summary

Daily Weather History Graph

Daily Weather History Graph

Search for Another Location

Airport:

Trip Planner

Search our weather history database for the weather conditions in past years. The results will help you decide how hot, cold, wet, or windy it might be!

Date:

Astronomy

Mar. 29, 2013 Rise Set
Actual Time 7:06 AM CDT 7:36 PM CDT
Civil Twilight 6:41 AM CDT 8:02 PM CDT
Nautical Twilight 6:10 AM CDT 8:32 PM CDT
Astronomical Twilight 5:39 AM CDT 9:04 PM CDT
Moon 10:31 PM CDT (3/29) 8:21 AM CDT (3/29)
Length of Visible Light 13h 21m
Length of Day
12h 29m
Waning Gibbous, 93% of the Moon is Illuminated
Mar 29
Waning Gibbous
Apr 2
Last Quarter
Apr 10
New
Apr 18
First Quarter
Apr 25
Full

Hourly Weather History & Observations

Time (CDT) Temp. Dew Point Humidity Pressure Visibility Wind Dir Wind Speed Gust Speed Precip Events Conditions
12:15 AM 55.4 °F 44.6 °F 67% 30.15 in 10.0 mi SSE 3.5 mph - N/A   Overcast
12:35 AM 55.4 °F 44.6 °F 67% 30.15 in 10.0 mi SSE 4.6 mph - N/A   Mostly Cloudy
12:55 AM 53.6 °F 44.6 °F 72% 30.15 in 10.0 mi SE 4.6 mph - N/A   Overcast
1:15 AM 53.6 °F 44.6 °F 72% 30.14 in 10.0 mi SSE 5.8 mph - N/A   Overcast
1:35 AM 55.4 °F 44.6 °F 67% 30.14 in 10.0 mi SSE 5.8 mph - N/A   Overcast
1:55 AM 55.4 °F 44.6 °F 67% 30.13 in 10.0 mi SSE 5.8 mph - N/A   Mostly Cloudy
2:15 AM 53.6 °F 44.6 °F 72% 30.13 in 10.0 mi SSE 3.5 mph - N/A   Mostly Cloudy
2:35 AM 53.6 °F 44.6 °F 72% 30.13 in 10.0 mi Calm Calm - N/A   Overcast
2:55 AM 53.6 °F 46.4 °F 77% 30.13 in 10.0 mi Calm Calm - N/A   Overcast
3:15 AM 53.6 °F 46.4 °F 77% 30.13 in 10.0 mi Calm Calm - N/A   Overcast
3:35 AM 55.4 °F 46.4 °F 72% 30.13 in 10.0 mi Calm Calm - N/A   Overcast
3:55 AM 53.6 °F 46.4 °F 77% 30.13 in 10.0 mi South 4.6 mph - N/A   Overcast
4:15 AM 53.6 °F 46.4 °F 77% 30.12 in 10.0 mi South 5.8 mph - N/A   Overcast
4:35 AM 55.4 °F 46.4 °F 72% 30.11 in 10.0 mi Calm Calm - N/A   Overcast
4:55 AM 53.6 °F 46.4 °F 77% 30.11 in 10.0 mi SE 3.5 mph - N/A   Mostly Cloudy
5:15 AM 53.6 °F 46.4 °F 77% 30.11 in 10.0 mi SE 3.5 mph - N/A   Mostly Cloudy
5:35 AM 53.6 °F 46.4 °F 77% 30.11 in 10.0 mi SSE 3.5 mph - N/A   Overcast
5:55 AM 53.6 °F 46.4 °F 77% 30.11 in 10.0 mi SSE 5.8 mph - N/A Thunderstorm Thunderstorm
6:15 AM 53.6 °F 46.4 °F 77% 30.12 in 10.0 mi SW 3.5 mph - N/A Thunderstorm Mostly Cloudy
6:35 AM 55.4 °F 48.2 °F 77% 30.12 in 10.0 mi South 4.6 mph - N/A   Mostly Cloudy
6:55 AM 53.6 °F 48.2 °F 82% 30.13 in 10.0 mi Calm Calm - N/A Thunderstorm Mostly Cloudy
7:15 AM 53.6 °F 48.2 °F 82% 30.13 in 9.0 mi East 3.5 mph - 0.01 in Thunderstorm Overcast
7:35 AM 53.6 °F 48.2 °F 82% 30.16 in 8.0 mi ENE 4.6 mph - 0.06 in   Overcast
7:55 AM 53.6 °F 48.2 °F 82% 30.16 in 7.0 mi East 8.1 mph - 0.18 in   Mostly Cloudy
8:15 AM 53.6 °F 48.2 °F 82% 30.17 in 8.0 mi East 8.1 mph - 0.04 in   Overcast
8:35 AM 53.6 °F 48.2 °F 82% 30.17 in 5.0 mi East 8.1 mph - 0.08 in   Overcast
8:55 AM 51.8 °F 48.2 °F 88% 30.18 in 7.0 mi NE 10.4 mph - 0.10 in   Overcast
9:15 AM 51.8 °F 48.2 °F 88% 30.18 in 7.0 mi East 10.4 mph - 0.04 in   Overcast
9:35 AM 51.8 °F 48.2 °F 88% 30.19 in 7.0 mi East 8.1 mph - 0.09 in   Overcast
9:55 AM 53.6 °F 48.2 °F 82% 30.20 in 10.0 mi East 9.2 mph - 0.09 in   Overcast
10:15 AM 53.6 °F 48.2 °F 82% 30.19 in 10.0 mi East 10.4 mph - 0.01 in   Overcast
10:35 AM 53.6 °F 48.2 °F 82% 30.19 in 10.0 mi East 9.2 mph - 0.01 in   Overcast
10:55 AM 53.6 °F 50.0 °F 88% 30.19 in 10.0 mi ESE 6.9 mph - 0.01 in   Overcast
11:15 AM 53.6 °F 50.0 °F 88% 30.19 in 10.0 mi ESE 5.8 mph - N/A   Overcast
11:55 AM 55.4 °F 51.8 °F 88% 30.18 in 10.0 mi ESE 6.9 mph - N/A   Overcast
12:15 PM 57.2 °F 50.0 °F 77% 30.18 in 10.0 mi ESE 5.8 mph - N/A   Overcast
12:55 PM 60.8 °F 51.8 °F 72% 30.17 in 10.0 mi ESE 8.1 mph - N/A   Mostly Cloudy
1:15 PM 62.6 °F 51.8 °F 68% 30.16 in 10.0 mi SE 10.4 mph - N/A   Mostly Cloudy
1:35 PM 64.4 °F 51.8 °F 64% 30.16 in 10.0 mi SSE 6.9 mph - N/A   Clear
1:55 PM 64.4 °F 53.6 °F 68% 30.14 in 10.0 mi SSE 9.2 mph - N/A   Clear
2:15 PM 64.4 °F 51.8 °F 64% 30.14 in 10.0 mi South 8.1 mph - N/A   Partly Cloudy
2:35 PM 66.2 °F 51.8 °F 60% 30.13 in 10.0 mi South 4.6 mph - N/A   Partly Cloudy
2:55 PM 66.2 °F 53.6 °F 64% 30.12 in 10.0 mi ESE 8.1 mph - N/A   Scattered Clouds
3:15 PM 66.2 °F 51.8 °F 60% 30.12 in 10.0 mi SSE 6.9 mph - N/A   Partly Cloudy
3:35 PM 66.2 °F 53.6 °F 64% 30.11 in 10.0 mi SSE 9.2 mph - N/A   Scattered Clouds
3:55 PM 68.0 °F 51.8 °F 56% 30.11 in 10.0 mi South 8.1 mph - N/A   Partly Cloudy
4:15 PM 66.2 °F 51.8 °F 60% 30.11 in 10.0 mi South 6.9 mph - N/A   Scattered Clouds
4:35 PM 66.2 °F 51.8 °F 60% 30.10 in 10.0 mi SSE 8.1 mph - N/A   Overcast
4:55 PM 66.2 °F 51.8 °F 60% 30.10 in 10.0 mi South 5.8 mph - N/A   Overcast
5:15 PM 68.0 °F 51.8 °F 56% 30.10 in 10.0 mi South 8.1 mph - N/A   Overcast
5:35 PM 68.0 °F 51.8 °F 56% 30.10 in 10.0 mi SSE 6.9 mph - N/A   Overcast
5:55 PM 66.2 °F 51.8 °F 60% 30.10 in 10.0 mi SSE 4.6 mph - N/A   Mostly Cloudy
6:15 PM 66.2 °F 51.8 °F 60% 30.10 in 10.0 mi SSE 5.8 mph - N/A   Overcast
6:35 PM 66.2 °F 51.8 °F 60% 30.10 in 10.0 mi SSE 5.8 mph - N/A   Overcast
6:55 PM 64.4 °F 51.8 °F 64% 30.10 in 10.0 mi South 4.6 mph - N/A   Mostly Cloudy
7:15 PM 64.4 °F 51.8 °F 64% 30.10 in 10.0 mi South 4.6 mph - N/A   Overcast
7:35 PM 62.6 °F 53.6 °F 72% 30.10 in 10.0 mi South 4.6 mph - N/A   Overcast
7:55 PM 62.6 °F 53.6 °F 72% 30.11 in 10.0 mi SSW 6.9 mph - N/A   Overcast
8:15 PM 62.6 °F 53.6 °F 72% 30.10 in 10.0 mi SSW 4.6 mph - N/A   Overcast
8:35 PM 60.8 °F 53.6 °F 77% 30.11 in 10.0 mi SSW 5.8 mph - N/A   Overcast
8:55 PM 60.8 °F 53.6 °F 77% 30.11 in 10.0 mi South 6.9 mph - N/A   Overcast
9:15 PM 60.8 °F 53.6 °F 77% 30.12 in 10.0 mi SSW 4.6 mph - N/A   Overcast
9:35 PM 60.8 °F 53.6 °F 77% 30.12 in 10.0 mi South 3.5 mph - N/A   Overcast
9:55 PM 59.0 °F 53.6 °F 82% 30.12 in 10.0 mi South 3.5 mph - N/A   Overcast
10:15 PM 59.0 °F 53.6 °F 82% 30.11 in 10.0 mi SE 4.6 mph - N/A   Overcast
10:35 PM 57.2 °F 53.6 °F 88% 30.13 in 10.0 mi SSE 4.6 mph - N/A   Overcast
10:55 PM 57.2 °F 53.6 °F 88% 30.12 in 10.0 mi SSE 3.5 mph - N/A   Mostly Cloudy
11:15 PM 57.2 °F 51.8 °F 82% 30.11 in 10.0 mi Calm Calm - N/A   Mostly Cloudy
11:35 PM 57.2 °F 51.8 °F 82% 30.11 in 10.0 mi SSE 3.5 mph - N/A   Scattered Clouds
11:55 PM 57.2 °F 51.8 °F 82% 30.11 in 10.0 mi SE 6.9 mph - N/A   Mostly Cloudy